Terminal Aerodrome Forecast
Issued by NWS Columbia, SC

Home | Current Version | Previous Version | Text Only | Print | Product List | Glossary On
Versions: 1 2 3 4 5 6 7 8 9 10 11 12 13 14 15 16 17 18 19 20 21 22 23 24 25 26 27 28 29 30 31 32 33 34 35 36 37 38 39 40 41 42 43 44 45 46 47 48 49 50
000
FTAK31 PAJN 211548 AAA
TAFAGS
TAF AMD
PAGS 211548Z 2116/2212 00000KT P6SM SCT015 OVC028
     FM211900 17004KT P6SM SCT028 OVC050
     FM220200 12005KT P6SM SCT040 OVC060 PROB30 2202/2206 -RA BKN020
     FM220600 12008KT P6SM -RA SCT015 OVC025
     FM221000 12009KT 6SM -RA BR BKN015 OVC025
      AMD LTD TO CLD VIS AND WIND=

USA.gov is the U.S. government's official web portal to all federal, state and local government web resources and services.